Location: Altenhof
(50.2418°N, 10.8789°E)
Time: 08:59:01
(UTC+00:00)

Cosmos 1484 Rocket - Pass Details

Date: 18 February 2020
Orbit: 507 x 559 km, 97.4° (Epoch: 27 March)

Event Time Altitude Azimuth Distance (km) Brightness Sun altitude
Rises 04:59:34 0° 6° (N) 2,711 6.4 -14.0°
Reaches altitude 10° 05:01:47 10° 359° (N) 1,822 5.4 -13.6°
Maximum altitude 05:05:26 38° 291° (WNW) 859 3.3 -13.0°
Drops below altitude 10° 05:09:06 10° 223° (SW) 1,832 5.1 -12.5°
Enters shadow 05:11:15 - 216° (SW) 2,691 6.0 -12.1°
